Regional Weather Roundup
Issued by NWS

Home | Current Version | Previous Version | Graphics & Text | Print | Product List | Glossary On
Versions: 1 2 3 4 5 6 7 8 9 10 11 12 13 14 15 16 17 18 19 20 21 22 23 24 25 26 27 28 29 30 31 32 33 34 35 36 37 38 39 40 41 42 43 44 45 46 47 48 49 50
000
ASUS43 KFSD 271810
RWRSD

WEATHER ROUNDUP FOR SOUTH DAKOTA
NATIONAL WEATHER SERVICE SIOUX FALLS SD
1200 PM CST FRI FEB 27 2015

NOTE: "FAIR" INDICATES FEW OR NO CLOUDS BELOW 12,000 FEET WITH NO
SIGNIFICANT WEATHER AND/OR OBSTRUCTIONS TO VISIBILITY.


SDZ001>005-009-010-012>017-271900-
NORTHWEST AND NORTH CENTRAL SOUTH DAKOTA

CITY           SKY/WX    TMP DP  RH WIND       PRES   REMARKS
BUFFALO          N/A     16   7  67 S15       30.05F WCI   1
FAITH            N/A     18  -3  39 S20G28    30.22F WCI   2
MOBRIDGE       SUNNY     14   3  61 S12       30.34F WCI   0
$$

SDZ012>016-024>037-041>051-057-063-072>074-271900-
SOUTHWEST AND SOUTH CENTRAL SOUTH DAKOTA

CITY           SKY/WX    TMP DP  RH WIND       PRES   REMARKS
RAPID CTY ARPT SUNNY     16   6  65 S22       30.13F WCI  -2
PIERRE         SUNNY     19  -1  41 S9G20     30.37F WCI   8
CUSTER         CLOUDY    11   3  70 VRB7G22   29.94F WCI   0
ELLSWORTH AFB  SUNNY     16   6  65 S23G29    30.10F WCI  -2
PHILIP         SUNNY     21   1  41 SE9       30.29F WCI  11
PINE RIDGE     PTSUNNY   21   9  59 S20       30.17F WCI   6
WINNER         FAIR      18   0  45 S14       30.39F WCI   4
$$

SDZ004>011-016>023-039-040-271900-
NORTHEAST SOUTH DAKOTA

CITY           SKY/WX    TMP DP  RH WIND       PRES   REMARKS
ABERDEEN       SUNNY      9  -1  64 S9        30.48F WCI  -4
WATERTOWN      SUNNY      7  -2  66 VRB6      30.46S WCI  -3
SISSETON         N/A     12  -2  53 W9        30.49S WCI   0
$$

SDZ017-020-022-023-036>040-048>070-271900-
SOUTHEAST SOUTH DAKOTA

CITY           SKY/WX    TMP DP  RH WIND       PRES   REMARKS
SIOUX FALLS    SUNNY     10  -3  55 VRB5      30.52F WCI   2
HURON          SUNNY      9  -3  58 S5        30.50F WCI   1
CHAMBERLAIN    SUNNY     18  -3  40 S9        30.43F WCI   6
MITCHELL       SUNNY     16  -2  45 S9        30.51F WCI   4
YANKTON        SUNNY     12   0  57 S6        30.55F WCI   3
$$

ABBREVIATIONS USED IN REMARKS
   TC - TEMPERATURE IN CELSIUS
  WCI - WIND CHILL INDEX
   HX - HEAT INDEX
  VSB - VISIBILITY



USA.gov is the U.S. government's official web portal to all federal, state and local government web resources and services.